Starlink 33937

operational
NORAD ID: 63704 Int'l Des: 2025-087 Owner: SPXS Country: US Constellation: starlink
LEOCIRCULAR

About Starlink 33937

Description loading...

Live Position

Loading 3D Globe...

Upcoming Passes

Altitude History

Altitude vs Time

uPlot chart will show altitude changes over time

Two-Line Element Set

1 63704U 25087H 25351.33339120 -.00012723 00000-0 -41809-3 0 9994
2 63704 53.1573 241.8143 0001277 94.1617 294.6697 15.30205981 5668
Epoch: Dec 17, 2025 • Age: 12 hours

Current Status

Altitude 491.0 km
Velocity 7.62 km/s
Sub-Earth Point -44.33°S, 163.75°E
Launch Date Apr 28, 2025
Age 0.6 years
Type internet

Technical Details

Classification Payload
Mass 575.00 kg
Dry Mass 530.00 kg
Total Mass 575.00 kg
Length 0.30 m
Diameter 4.10 m
Span 29.00 m
Shape Box + pan
Manufacturer SPXS
Bus Type Starlink V2MO
Phase Status In Orbit
Owner/State SPXS/US

Large Constellations

Loading constellations...